ZHONGXING-19

Last updated on Sat Apr 11 2026 00:02:55 GMT+0000 (Coordinated Universal Time)

1 54230U 22148A 26100.12693185 -.00000080 00000+0 00000+0 0 9992 2 54230 0.0368 264.9170 0002105 118.3788 23.9291 1.00270679 12692
UTC large
Height (km)
Speed (km/s)
/
Latitude / Longitude
Inclination (degrees)
Orbital Period (minutes)
Azimuth
Elevation
Range (km)
Doppler Factor

Next 0 passes for location: London (51.5072 / 0.1276)

Sorry there are no passes over London.
ZHONGXING-19